Total_Precipitation_Accumulation
0.99 1.15 1.22 1.27 1.26 1.78 1.28 1.08 0.84 1.31 1.33 1.07 0.72 0.92 0.66 0.63 0.62 1.19 1.07 0.79 0.36 0.40 0.34 0.38 0.50 0.59 0.37 0.34 0.37 0.38 0.38 0.41 0.42 0.34 0.39 0.12 0.10 0.10 0.18 0.20 0.16 0.09 0.10 0.10 0.22 0.14 0.20 0.21 0.10 0.08 0.13 0.21 0.25 0.20 0.29 0.22 0.31 0.19 0.16 0.12 0.13 0.08 0.04 0.02 0.01 0.03 0.02 0.01 0.00 0.00 0.00 0.00 0.03 0.00 0.00 0.00 0.00 0.00 0.00 0.00 0.01 0.00 0.02 0.00 0.01 0.06 0.09 0.19
1.25 1.39 1.13 0.98 1.13 1.32 1.46 1.47 1.30 1.26 1.49 0.96 0.97 0.90 0.83 0.68 0.60 0.63 1.40 1.09 0.85 0.39 0.36 0.34 0.41 0.58 0.62 0.46 0.41 0.42 0.52 0.45 0.38 0.30 0.15 0.10 0.11 0.12 0.20 0.22 0.17 0.09 0.07 0.15 0.12 0.25 0.16 0.27 0.10 0.19 0.18 0.26 0.23 0.39 0.14 0.54 0.20 0.17 0.09 0.05 0.03 0.04 0.11 0.10 0.07 0.21 0.02 0.01 0.02 0.04 0.00 0.00 0.07 0.00 0.00 0.00 0.01 0.00 0.00 0.02 0.01 0.04 0.03 0.04 0.07 0.11 0.13 0.75
1.42 1.30 1.53 1.26 1.01 1.13 1.28 1.45 1.12 1.31 1.32 1.21 0.87 0.75 0.91 0.78 0.75 0.67 0.58 1.09 1.15 0.75 0.31 0.82 0.49 0.51 0.67 0.77 0.44 0.60 0.75 0.61 0.64 0.41 0.04 0.08 0.11 0.13 0.17 0.17 0.15 0.09 0.09 0.18 0.18 0.38 0.23 0.21 0.17 0.17 0.34 0.28 0.53 0.59 0.28 0.80 0.30 0.18 0.05 0.05 0.03 0.00 0.10 0.10 0.07 0.35 0.08 0.06 0.02 0.02 0.11 0.00 0.06 0.00 0.00 0.01 0.03 0.02 0.00 0.03 0.09 0.03 0.09 0.11 0.23 0.16 0.82 1.57
1.21 1.43 1.39 1.33 1.41 1.07 1.09 1.27 1.53 0.96 1.20 1.37 1.18 1.18 0.80 1.03 0.76 0.76 0.66 1.13 1.25 1.36 0.51 0.38 0.81 0.60 0.63 0.71 0.85 0.64 0.75 0.95 0.73 0.20 0.04 0.05 0.10 0.13 0.12 0.14 0.11 0.15 0.14 0.16 0.35 0.20 0.22 0.26 0.54 0.22 0.33 0.35 0.27 0.40 0.66 0.77 0.21 0.40 0.15 0.05 0.03 0.00 0.00 0.02 0.02 0.11 0.23 0.01 0.03 0.03 0.06 0.06 0.01 0.11 0.00 0.01 0.03 0.38 0.02 0.00 0.02 0.15 0.19 0.23 0.23 0.40 1.23 1.55
1.04 1.08 1.61 1.37 1.44 1.48 1.09 1.20 1.59 1.17 1.32 1.21 1.37 1.02 1.23 0.86 1.07 0.75 0.84 0.93 1.03 1.33 1.23 0.58 0.50 1.08 0.77 0.73 0.76 1.28 1.04 0.93 0.63 0.10 0.34 0.13 0.09 0.12 0.16 0.12 0.11 0.13 0.15 0.23 0.27 0.22 0.38 0.34 0.47 0.70 0.45 0.51 0.18 0.72 0.37 0.35 0.22 0.30 0.12 0.05 0.02 0.01 0.00 0.01 0.02 0.09 0.20 0.11 0.02 0.02 0.06 0.13 0.15 0.00 0.02 0.03 0.09 0.06 0.34 0.02 0.06 0.20 0.17 0.27 0.29 0.21 1.50 1.01
0.82 0.99 1.12 1.50 1.45 1.49 1.32 1.17 1.38 1.71 1.04 1.40 0.99 1.54 1.10 1.48 1.21 1.04 0.88 0.81 1.20 1.30 1.31 1.25 0.56 0.86 1.16 0.97 1.48 1.34 1.27 1.04 3.40 0.19 0.05 0.12 0.15 0.11 0.08 0.11 0.12 0.11 0.18 0.23 0.32 0.31 0.59 0.81 0.61 0.81 0.64 0.55 0.33 0.32 0.22 0.15 0.30 0.47 0.12 0.12 0.05 0.01 0.00 0.04 0.02 0.10 0.16 0.26 0.16 0.18 0.22 0.08 0.21 0.24 0.05 0.05 0.01 0.03 0.16 0.45 0.11 0.14 0.12 0.20 0.20 0.16 0.34 0.56
0.80 0.80 0.96 1.18 1.28 1.33 1.27 1.43 1.28 1.72 1.38 1.17 1.39 0.87 1.61 1.15 1.51 1.12 0.96 0.84 1.25 0.96 1.62 1.61 1.48 0.63 1.27 2.71 3.24 1.93 1.32 0.53 0.15 1.63 0.20 0.15 0.17 0.15 0.14 0.12 0.20 0.12 0.13 0.21 0.30 0.40 0.43 0.71 0.53 0.50 0.61 0.55 0.16 0.19 0.12 0.24 0.40 0.30 0.34 0.04 0.04 0.03 0.03 0.03 0.02 0.07 0.12 0.14 0.24 0.27 0.07 0.24 0.36 0.29 0.26 0.11 0.04 0.13 0.05 0.11 0.55 1.46 0.27 0.27 0.20 0.17 0.45 0.20
0.72 0.85 0.76 0.90 1.11 1.24 1.40 1.18 1.22 1.58 1.88 1.12 1.27 1.22 1.04 1.45 1.26 1.28 1.17 0.94 0.89 1.31 1.50 1.81 1.94 1.50 1.64 3.59 3.62 2.46 1.46 0.55 0.17 0.40 0.36 0.32 0.13 0.17 0.11 0.11 0.17 0.13 0.15 0.17 0.24 0.38 0.41 0.53 0.72 0.48 0.57 0.56 0.42 0.13 0.10 0.31 0.66 0.38 0.23 0.14 0.04 0.05 0.12 0.36 0.07 0.02 0.07 0.11 0.16 0.14 0.33 0.32 0.44 0.29 0.28 0.23 0.42 0.26 0.23 0.32 0.45 1.19 1.39 1.23 1.01 0.24 0.28 0.62
0.64 0.85 1.17 0.85 0.90 1.30 1.23 1.30 1.30 1.30 1.55 1.80 1.05 1.54 0.97 0.97 1.66 1.38 1.35 1.05 1.33 1.46 1.72 2.44 1.78 2.06 1.95 2.01 1.56 1.76 0.61 0.22 0.13 0.06 0.36 0.30 0.19 0.17 0.09 0.25 0.23 0.17 0.16 0.13 0.18 0.29 0.41 0.44 0.60 0.41 0.70 0.40 0.41 0.47 0.17 0.62 0.67 0.20 0.17 0.13 0.14 0.21 0.08 0.17 0.20 0.09 0.06 0.10 0.10 0.12 0.29 0.38 0.66 0.41 0.46 0.72 0.26 0.75 0.88 0.71 0.97 0.64 0.50 2.58 0.94 1.05 0.43 0.85
0.48 0.88 0.67 1.10 0.86 1.16 1.28 1.29 1.33 1.32 1.54 1.77 1.54 1.24 1.86 0.92 1.22 1.68 1.28 1.48 1.39 1.93 1.70 2.28 2.97 2.70 3.69 3.65 2.38 1.50 0.25 0.26 0.05 0.01 0.06 0.18 0.10 0.06 0.07 0.16 0.14 0.23 0.16 0.14 0.16 0.22 0.35 0.34 0.27 0.53 0.78 0.49 0.55 0.41 0.23 0.44 0.44 0.08 0.22 0.16 0.08 0.15 0.35 0.39 0.27 0.20 0.29 0.13 0.07 0.17 0.35 0.36 0.35 0.52 0.60 0.36 0.20 0.31 1.52 1.22 1.50 1.62 1.10 1.06 2.49 1.02 1.43 0.54
0.62 0.53 0.60 0.75 1.03 1.10 1.38 1.21 1.45 1.38 1.46 1.94 1.63 1.42 1.27 1.65 1.05 1.53 1.37 1.52 1.66 1.34 2.36 1.82 3.65 3.38 4.05 2.71 2.16 0.86 0.06 0.02 0.01 0.02 0.14 0.11 0.10 0.08 0.09 0.12 0.20 0.28 0.19 0.18 0.14 0.15 0.20 0.41 0.36 1.16 0.87 0.67 0.56 0.52 0.41 0.28 0.18 0.17 0.04 0.09 0.15 0.39 0.32 0.34 0.21 0.24 0.37 0.30 0.10 0.22 0.71 0.24 0.38 0.37 0.80 0.58 0.32 0.25 0.63 1.26 1.38 1.81 0.90 1.52 0.61 1.49 1.10 1.61
0.55 0.72 0.51 0.63 0.83 1.03 1.49 1.50 1.36 1.46 1.77 1.82 1.92 1.61 1.36 1.35 1.29 1.30 1.67 1.74 1.89 1.58 2.06 2.90 2.94 4.21 2.92 3.96 1.53 0.50 0.06 0.10 0.00 0.01 0.01 0.09 0.15 0.09 0.15 0.06 0.07 0.23 0.34 0.34 0.23 0.17 0.23 0.35 0.93 1.88 0.99 0.57 0.99 0.68 0.39 0.38 0.24 0.30 0.14 0.34 0.18 0.17 0.39 0.30 0.42 0.52 0.26 0.47 0.17 0.25 0.43 0.25 0.31 0.40 0.50 0.66 0.64 0.40 0.53 0.53 0.96 1.73 1.51 1.07 1.30 1.51 0.75 1.24
0.59 0.65 0.53 0.51 0.76 0.93 1.05 1.26 1.52 1.68 1.70 1.76 2.17 1.67 1.74 1.32 1.40 1.52 1.33 2.12 1.81 1.97 2.86 3.28 4.32 5.45 4.96 5.16 1.12 0.24 0.05 0.07 0.03 0.01 0.01 0.04 0.13 0.13 0.04 0.12 0.12 0.18 0.29 0.39 0.38 0.41 0.23 0.46 1.28 1.54 2.03 1.29 0.69 0.58 0.96 0.27 0.49 0.41 0.43 0.51 0.53 0.38 0.29 0.31 0.33 0.98 0.37 0.42 0.26 0.25 0.46 0.58 0.45 0.55 0.58 0.57 0.72 0.51 0.32 0.51 1.18 0.82 2.07 1.79 1.24 1.01 1.13 1.28
0.48 0.61 0.67 0.69 0.52 1.01 0.81 1.08 1.50 1.66 2.10 2.33 1.96 2.25 1.54 1.71 1.51 1.64 1.65 1.92 1.83 2.26 3.06 5.08 5.27 5.73 5.91 2.73 1.21 0.67 0.17 0.01 0.02 0.07 0.06 0.04 0.13 0.13 0.13 0.07 0.12 0.29 0.37 0.31 0.40 0.45 0.56 0.33 1.05 1.56 2.12 1.37 1.11 0.57 0.48 0.69 0.37 0.50 0.60 0.54 0.63 0.60 0.24 0.13 0.18 0.41 0.54 0.44 0.39 0.32 0.62 0.60 0.65 0.54 0.67 0.56 0.57 0.80 0.44 0.30 0.47 0.76 1.33 1.64 1.61 1.34 0.87 0.77
0.62 0.42 0.46 0.68 0.67 0.77 0.75 0.90 1.18 1.43 1.67 2.42 2.51 2.65 1.82 1.54 1.72 1.71 2.55 2.18 2.30 2.58 3.61 5.65 8.25 8.36 6.16 2.07 1.50 1.13 0.24 0.10 0.07 0.06 0.15 0.12 0.11 0.23 0.13 0.12 0.16 0.12 0.40 0.51 0.44 0.41 0.55 0.62 1.07 1.80 1.78 1.57 0.96 0.86 0.56 0.56 0.54 0.66 0.95 1.02 0.87 0.33 0.27 0.05 0.06 0.36 0.40 0.73 0.82 0.78 0.82 0.87 0.69 1.08 0.69 0.65 0.74 0.67 0.82 0.51 0.49 0.38 0.44 1.63 1.80 1.41 1.23 1.18
0.90 0.68 0.57 0.57 0.62 0.80 0.74 0.83 1.25 1.53 1.62 1.99 2.52 2.90 2.65 1.79 1.78 2.18 2.82 2.44 2.45 3.11 4.66 6.86 11.87 5.45 5.80 2.56 1.10 1.14 0.77 0.25 0.17 0.21 0.29 0.13 0.14 0.58 0.13 0.11 0.19 0.28 0.31 0.91 0.49 0.59 0.74 0.96 1.18 1.25 1.33 1.28 1.47 1.74 1.30 0.87 1.09 1.26 0.51 0.70 0.62 0.30 0.33 0.21 0.09 0.09 0.17 1.00 0.74 0.74 0.80 0.63 0.77 0.71 0.74 0.67 0.61 0.75 0.77 0.79 0.76 0.49 0.29 0.36 1.06 1.78 1.16 1.31
1.29 1.02 0.70 0.75 0.68 0.74 0.90 0.96 0.91 1.28 1.69 1.94 2.50 2.50 2.82 2.75 2.17 2.81 3.72 3.54 4.73 5.17 4.65 7.39 6.27 9.06 5.12 4.70 1.93 0.95 0.86 0.35 0.42 0.13 0.26 0.19 0.06 0.42 0.25 0.27 0.35 0.41 0.56 1.11 1.29 0.95 1.58 1.12 1.66 0.90 1.55 1.83 1.15 1.85 1.67 1.41 1.11 1.03 0.58 0.41 0.40 0.29 0.66 0.16 0.16 0.11 0.41 0.67 1.14 0.91 0.82 0.87 0.99 0.76 0.89 0.65 0.55 0.58 0.63 0.68 0.80 0.84 0.48 0.42 0.40 1.39 1.47 1.05
1.05 1.07 0.97 0.90 0.68 0.64 0.49 1.00 1.47 1.40 1.85 2.36 2.08 3.61 2.89 3.45 2.93 4.15 5.55 6.35 5.89 7.27 7.53 8.10 5.23 9.60 6.55 3.85 1.77 0.77 0.38 0.38 0.52 0.49 0.27 0.17 0.13 0.31 0.65 0.41 0.74 0.63 1.13 1.04 2.75 1.79 1.87 1.65 1.13 1.13 1.46 1.33 1.51 1.98 1.84 1.50 0.78 0.42 0.41 0.38 0.42 0.24 0.27 0.25 0.19 0.48 0.34 0.27 1.44 0.71 0.50 0.90 0.79 0.69 0.91 0.99 0.70 0.48 0.49 0.54 0.73 0.75 0.82 0.56 0.39 0.49 0.73 1.23
0.97 0.98 0.95 1.07 0.92 0.70 0.57 0.77 1.31 1.77 1.79 2.31 3.92 4.03 4.01 5.48 5.80 4.97 7.02 6.73 6.56 9.10 8.48 9.30 9.09 6.78 5.62 3.28 1.39 0.68 0.38 0.54 0.77 0.70 0.83 0.37 0.69 0.50 1.01 1.29 0.72 1.07 1.59 1.85 2.36 1.46 2.62 1.91 1.36 3.34 1.96 1.19 1.01 0.79 0.74 0.64 0.41 0.24 0.10 0.13 0.22 0.28 0.22 0.43 0.43 0.18 0.32 0.36 0.44 0.73 0.62 0.82 0.80 0.76 0.91 0.97 0.76 0.57 0.44 0.39 0.46 0.59 0.87 0.80 0.64 0.56 0.50 0.64
0.74 0.83 0.99 0.86 1.09 1.21 0.94 0.73 1.11 1.81 2.49 4.03 4.78 7.39 7.52 6.59 7.29 6.65 7.07 5.57 3.30 3.02 3.26 4.59 3.67 3.28 3.31 2.13 1.52 0.87 0.59 0.63 0.78 1.31 0.53 0.56 0.56 0.99 2.05 1.67 3.53 2.22 1.56 0.85 1.40 1.12 1.45 1.15 1.56 1.14 0.91 0.60 0.28 0.21 0.20 0.50 0.44 0.31 0.32 0.35 0.33 0.22 0.36 0.71 1.13 0.51 0.38 0.26 0.52 0.57 0.92 0.74 0.82 1.00 0.88 1.00 0.83 0.62 0.52 0.39 0.35 0.35 0.51 0.81 0.91 0.68 0.73 1.01
0.88 0.83 0.82 0.98 1.20 1.31 1.40 1.38 1.28 2.05 2.65 2.80 4.08 4.23 5.38 3.71 3.92 4.62 4.69 3.62 2.26 1.99 2.14 2.50 2.75 2.20 1.90 1.97 1.54 0.63 0.96 3.55 1.95 1.07 1.14 1.88 1.46 1.24 2.56 1.65 3.22 2.64 1.60 0.44 1.51 1.43 1.13 2.24 0.75 0.56 0.30 0.18 0.15 0.15 0.22 0.32 0.46 1.04 1.04 0.51 0.50 0.26 0.92 0.42 0.48 0.38 0.72 1.01 0.59 0.44 0.60 0.74 0.90 0.89 0.91 0.74 0.61 0.70 0.59 0.41 0.35 0.35 0.35 0.48 0.66 0.76 0.52 0.77
1.24 1.01 0.83 1.06 1.10 1.51 1.53 1.45 1.86 2.37 3.17 3.52 4.13 2.70 3.19 2.95 2.90 4.52 3.02 3.03 1.82 2.26 1.93 2.17 2.23 1.92 1.71 1.78 2.51 1.69 1.09 2.51 2.05 2.05 2.44 1.39 3.96 1.28 2.85 0.88 1.43 0.88 0.76 1.42 2.70 2.53 2.41 1.13 0.58 0.42 0.18 0.12 0.22 0.20 0.42 0.45 0.61 0.49 0.73 0.73 0.74 1.04 0.64 0.94 0.87 0.84 0.54 1.11 0.74 0.42 0.53 0.93 1.00 0.91 0.86 0.92 0.73 0.74 0.53 0.40 0.31 0.26 0.28 0.27 0.29 0.52 0.60 0.55
0.81 0.97 1.08 1.16 1.22 1.36 2.01 1.78 2.49 3.20 4.68 4.70 3.07 2.51 2.26 2.34 2.05 2.72 3.37 3.35 2.60 1.73 1.71 2.03 1.92 1.63 1.61 1.41 1.63 2.03 1.60 1.34 1.99 1.51 2.77 1.34 4.95 1.28 1.71 1.48 1.84 0.96 1.71 1.76 1.27 1.78 1.72 0.46 0.31 0.21 0.12 0.05 0.15 0.27 0.37 0.73 0.77 1.04 1.50 0.78 0.64 0.91 0.61 0.85 0.65 1.03 0.99 0.58 0.64 0.52 0.44 0.77 1.06 1.10 0.98 0.90 0.81 0.61 0.61 0.52 0.28 0.24 0.22 0.23 0.26 0.24 0.46 0.60
0.70 0.84 1.01 1.33 1.54 1.63 1.44 2.35 3.49 5.12 5.30 2.04 1.95 1.59 2.13 2.11 2.09 1.82 2.46 2.73 2.50 1.97 1.83 1.85 1.66 1.48 1.36 1.76 2.25 1.40 1.60 1.47 1.16 2.28 2.44 1.57 2.15 1.84 1.90 0.92 0.95 1.63 1.27 1.36 1.12 0.63 0.58 0.53 0.23 0.12 0.07 0.08 0.12 0.23 0.37 0.64 0.99 0.82 0.90 1.17 0.78 0.85 1.14 0.51 0.82 0.56 0.93 0.69 1.15 0.54 0.78 0.66 0.97 1.18 1.21 1.00 0.67 0.62 0.54 0.49 0.38 0.29 0.26 0.24 0.24 0.24 0.24 0.45
0.93 0.77 1.02 1.12 1.64 1.36 1.95 3.09 6.40 3.58 2.71 3.92 2.15 2.07 1.91 1.63 1.74 2.30 2.49 3.21 2.68 1.92 1.75 2.25 1.90 1.47 1.73 1.68 1.39 1.25 1.67 3.13 1.22 1.96 1.12 0.97 2.07 2.56 1.91 1.39 1.45 1.56 1.17 0.47 1.40 1.07 0.31 0.31 0.41 0.36 0.04 0.10 0.38 0.46 0.31 0.31 0.60 0.52 0.43 0.50 0.69 1.02 1.11 0.84 0.69 0.47 1.08 1.21 0.48 0.77 0.93 1.55 1.04 1.11 1.24 1.21 0.80 0.56 0.47 0.51 0.39 0.32 0.25 0.24 0.22 0.34 0.27 0.26
1.52 1.34 1.11 1.18 1.26 1.84 3.48 5.78 3.25 2.25 3.68 2.62 1.71 1.53 1.77 1.81 1.97 2.88 2.66 3.31 3.39 1.96 2.40 2.75 1.33 1.99 1.13 2.18 2.16 3.35 3.11 1.77 1.96 2.02 2.18 1.81 2.97 1.74 2.00 2.44 1.68 1.72 0.71 1.19 0.98 1.12 0.65 0.21 0.27 0.19 0.12 0.13 0.15 0.19 0.18 0.15 0.31 0.45 0.40 0.08 0.42 0.75 0.98 1.20 0.90 1.08 1.21 0.94 1.06 0.50 1.14 1.18 0.93 0.91 0.97 0.92 0.85 0.65 0.38 0.38 0.28 0.21 0.21 0.22 0.24 0.27 0.29 0.31
2.61 1.88 1.71 1.97 1.94 3.18 6.04 3.27 1.55 2.91 4.32 2.26 2.05 2.23 1.48 1.69 4.11 3.52 2.64 3.80 3.59 2.47 1.82 2.11 1.49 3.12 0.82 2.10 1.53 2.95 2.89 3.02 1.78 2.27 3.18 3.09 2.04 5.31 2.15 2.40 1.84 1.35 1.54 2.63 3.51 1.96 0.78 0.36 0.33 0.22 0.24 0.31 0.19 0.37 0.17 0.16 0.36 0.30 0.27 0.18 0.42 0.39 0.53 0.62 1.09 1.07 1.23 1.24 1.27 1.05 0.76 0.92 0.79 0.85 0.69 0.69 0.71 0.75 0.54 0.37 0.30 0.20 0.14 0.16 0.18 0.20 0.27 0.33
3.32 2.79 2.03 2.18 2.55 2.23 1.65 1.35 1.96 1.78 1.27 1.35 1.45 1.57 2.02 2.04 2.67 4.89 2.82 5.86 4.93 2.91 1.46 2.37 1.48 4.04 0.74 1.59 1.76 1.51 2.73 5.08 1.46 2.68 2.72 3.77 3.18 3.18 2.32 2.70 1.48 1.55 1.30 1.95 1.90 2.79 0.41 0.46 0.21 0.22 0.21 0.24 0.22 0.10 0.08 0.09 0.32 0.25 0.23 0.62 0.24 0.22 0.61 0.63 1.07 1.19 0.85 1.16 1.14 0.96 0.98 0.85 0.82 0.89 0.68 0.62 0.71 0.69 0.68 0.51 0.35 0.27 0.16 0.11 0.12 0.15 0.17 0.20
2.38 2.91 2.81 2.63 2.63 3.19 2.03 2.24 1.02 0.82 1.11 1.23 1.71 1.22 1.81 3.61 3.45 3.62 4.74 5.91 6.38 3.21 7.62 1.71 1.93 1.73 1.95 2.06 2.25 1.77 1.86 2.16 1.87 2.77 2.33 3.38 5.89 5.12 3.02 2.16 1.99 1.74 2.17 1.34 1.38 1.50 0.88 0.73 0.48 0.52 0.20 0.29 0.11 0.07 0.07 0.08 0.22 0.29 0.70 0.63 0.59 0.87 1.01 1.08 0.88 1.24 1.13 1.62 1.66 1.05 0.95 0.92 0.98 0.91 0.64 0.47 0.44 0.52 0.53 0.51 0.40 0.27 0.18 0.13 0.10 0.10 0.13 0.15
1.84 2.80 3.51 4.42 6.70 7.76 4.97 2.74 1.61 1.56 0.82 1.12 1.32 1.89 2.96 3.31 4.83 4.59 6.94 6.50 6.91 2.75 2.05 3.99 1.45 2.36 1.71 2.16 3.13 1.95 2.08 2.41 3.06 3.82 3.53 4.68 4.98 5.63 4.78 2.72 3.05 3.13 2.73 2.26 1.33 1.15 2.36 0.58 0.60 1.31 0.73 0.16 0.06 0.09 0.10 0.20 0.12 0.63 1.08 0.77 0.99 0.76 1.23 1.59 1.81 1.62 2.69 2.33 1.61 1.07 0.67 0.49 0.76 0.66 0.65 0.45 0.31 0.29 0.33 0.38 0.40 0.36 0.29 0.19 0.14 0.11 0.12 0.15
2.77 2.34 3.31 5.06 5.44 3.45 2.85 2.89 2.57 2.05 1.87 1.82 2.43 2.79 3.48 5.43 4.27 6.01 6.92 5.21 4.19 3.22 2.00 2.36 1.56 1.97 1.98 1.63 2.59 2.20 2.33 2.23 2.63 2.86 5.65 4.60 6.06 4.24 4.57 5.23 5.94 4.08 4.03 3.15 2.43 1.52 1.59 1.28 1.32 0.63 0.08 0.13 0.18 0.26 0.39 0.24 0.45 0.57 1.27 1.09 1.10 1.58 1.29 1.79 2.07 2.07 2.32 1.98 1.48 1.08 0.68 0.51 0.88 0.59 0.38 0.24 0.15 0.16 0.21 0.37 0.30 0.32 0.45 0.58 0.42 0.28 0.28 0.31
2.54 3.18 4.51 3.98 2.86 2.35 2.48 1.95 2.85 3.35 3.23 3.54 3.74 5.35 4.03 6.30 5.17 6.05 5.49 4.33 2.69 2.72 1.89 2.43 2.16 2.16 1.58 1.32 2.00 1.90 1.87 2.45 2.74 2.87 2.66 3.11 4.47 5.54 4.29 4.29 4.83 4.96 4.98 3.92 3.35 2.01 1.56 1.44 0.91 0.68 0.36 0.26 0.34 0.48 0.85 1.42 1.35 1.13 1.87 1.90 1.27 1.68 1.44 1.61 2.05 2.42 1.73 1.12 0.79 0.68 0.67 1.18 0.84 0.44 0.18 0.13 0.10 0.10 0.09 0.16 0.38 0.40 0.36 0.53 0.49 0.49 0.60 0.52
2.50 3.72 3.92 3.75 3.64 2.75 1.85 1.41 3.10 3.02 4.12 5.48 5.55 6.28 5.36 6.94 8.22 5.19 4.71 2.71 2.30 3.34 1.80 1.82 1.49 1.96 1.68 1.78 1.99 1.69 1.87 1.91 1.90 2.17 2.15 2.18 3.04 4.10 3.52 2.56 5.29 4.07 4.20 3.25 2.35 2.37 1.90 1.50 1.47 1.16 0.81 1.41 0.51 0.67 0.82 1.50 1.49 0.98 1.14 1.35 1.41 1.97 1.50 1.12 1.05 1.20 0.86 0.52 0.53 0.43 0.42 0.50 0.48 0.36 0.20 0.19 0.17 0.15 0.16 0.15 0.14 0.23 0.55 0.36 0.38 0.40 0.41 0.40
3.46 4.66 6.11 5.09 4.26 2.55 2.42 3.13 3.37 3.66 5.23 6.87 5.88 6.52 6.57 7.64 6.97 3.60 2.71 2.19 2.60 1.27 1.24 0.91 1.38 1.54 2.52 1.60 1.68 1.34 1.64 1.57 2.24 1.86 1.83 2.09 2.08 2.93 4.44 2.76 2.98 3.08 3.59 2.96 2.39 1.98 2.15 2.54 2.22 1.74 1.12 0.76 0.36 0.19 0.42 0.31 0.32 0.33 0.93 1.07 1.01 0.82 0.65 0.84 0.65 0.81 0.65 0.30 0.22 0.31 0.75 0.83 0.31 0.31 0.16 0.12 0.17 0.15 0.14 0.12 0.12 0.09 0.12 0.34 0.36 0.19 0.21 0.18
4.24 5.21 4.74 4.72 5.09 4.17 3.78 2.67 2.96 4.43 6.27 7.26 8.36 7.92 9.57 8.32 5.82 4.11 2.48 1.94 1.25 1.24 0.94 2.17 1.40 1.60 2.16 1.87 1.65 1.46 1.41 2.05 1.30 1.98 1.77 2.12 2.44 1.86 2.31 3.25 2.54 2.39 3.55 2.87 2.64 2.31 1.22 1.40 1.61 1.20 0.52 0.34 0.16 0.21 0.24 0.75 0.68 1.95 1.54 1.69 1.68 0.62 0.44 0.61 0.42 0.37 0.36 0.21 0.27 0.35 0.40 0.57 0.16 0.15 0.07 0.07 0.08 0.09 0.10 0.10 0.10 0.11 0.11 0.12 0.16 0.13 0.13 0.12
7.42 7.70 5.52 7.39 5.02 4.27 3.82 3.77 4.94 5.92 8.30 8.46 8.83 11.31 9.20 5.53 4.30 3.06 1.98 1.39 1.31 0.86 1.26 1.48 1.89 1.74 2.23 1.60 1.39 1.96 1.96 2.11 1.76 1.66 2.21 1.83 1.76 1.57 1.21 1.60 2.63 2.26 2.67 2.52 2.91 2.30 1.61 1.15 0.93 0.81 0.54 1.13 0.08 0.09 0.46 1.09 1.14 1.00 0.76 1.18 0.85 0.54 0.47 0.82 0.54 0.39 0.76 0.54 0.34 0.30 0.22 0.11 0.06 0.08 0.04 0.03 0.04 0.06 0.04 0.05 0.06 0.06 0.05 0.05 0.06 0.06 0.05 0.04
8.42 7.39 9.75 6.83 4.65 3.19 3.71 4.48 6.67 8.17 9.26 7.81 8.34 9.90 7.24 4.28 3.25 2.13 1.29 0.72 0.86 1.03 1.04 1.71 2.73 1.65 2.24 1.95 1.83 1.71 1.56 1.11 2.34 1.46 2.08 1.70 2.77 1.36 1.52 1.16 1.44 2.16 2.15 2.10 1.81 2.20 2.01 1.38 1.17 0.34 0.32 0.55 0.12 0.55 0.75 0.60 1.03 1.56 1.06 0.61 0.50 1.00 2.52 1.81 1.25 0.77 0.96 0.88 0.48 0.25 0.16 0.17 0.08 0.20 0.06 0.21 0.04 0.03 0.04 0.02 0.01 0.01 0.02 0.02 0.02 0.02 0.02 0.01
6.85 6.00 4.82 4.02 3.72 3.75 4.30 6.29 7.11 11.09 9.80 10.60 9.18 6.20 4.34 3.10 2.16 1.61 1.13 1.06 1.27 1.18 1.34 1.33 1.95 1.37 1.74 1.94 1.92 1.58 1.77 1.17 1.44 1.72 1.33 1.49 2.09 1.68 0.99 1.00 1.19 1.19 1.83 2.01 1.74 1.53 1.32 1.29 1.13 0.79 0.29 0.61 0.59 1.26 2.19 2.21 2.25 1.31 0.78 1.17 0.53 2.52 1.52 1.18 1.88 2.14 1.26 1.29 0.63 0.22 0.17 0.17 0.14 0.17 0.15 0.04 0.02 0.02 0.01 0.00 0.00 0.00 0.00 0.00 0.00 0.00 0.00 0.00
5.18 5.44 7.97 4.29 3.37 3.50 5.49 5.83 8.99 11.58 12.75 11.88 8.54 5.90 3.79 2.33 1.58 0.92 0.66 0.63 0.50 1.25 1.03 0.86 1.25 1.33 1.36 1.40 1.54 1.69 1.38 1.25 1.40 0.86 1.32 2.00 1.13 1.16 0.85 0.86 0.80 0.82 1.01 1.84 1.70 1.50 1.36 1.39 1.18 0.76 0.41 1.12 1.95 2.18 1.90 1.64 1.10 2.60 0.94 0.86 1.54 1.11 1.17 1.93 0.99 0.93 1.03 0.92 1.33 0.54 0.26 0.25 0.15 0.11 0.08 0.04 0.11 0.05 0.00 0.01 0.00 0.00 0.00 0.00 0.00 0.00 0.00 0.00
6.62 8.13 6.05 4.68 3.35 3.49 5.55 7.88 14.50 14.55 11.99 10.80 8.08 5.07 3.38 2.36 1.09 0.99 0.78 0.43 0.85 0.98 0.86 1.08 0.95 1.17 0.94 1.08 1.13 1.53 1.58 1.20 1.20 1.54 0.85 1.61 0.79 1.34 0.66 0.49 0.43 0.49 0.47 0.87 1.27 1.76 1.65 1.52 1.49 1.24 1.00 0.94 1.58 1.64 1.06 1.27 1.41 1.53 1.73 2.38 1.78 1.45 1.71 1.25 1.81 1.45 1.15 1.08 0.61 0.49 0.41 0.23 0.06 0.05 0.06 0.05 0.05 0.03 0.02 0.02 0.02 0.00 0.00 0.00 0.00 0.00 0.00 0.00
5.78 5.44 5.85 4.52 3.78 4.93 7.75 14.31 15.14 14.17 11.13 8.35 6.25 4.32 2.60 1.80 1.12 0.84 0.67 0.56 1.08 0.67 0.91 0.87 0.97 1.11 1.27 0.88 1.11 1.15 1.62 1.39 1.38 1.65 1.22 1.16 0.64 0.90 0.64 0.73 0.48 0.38 0.33 0.86 1.38 1.45 1.89 2.24 1.69 1.46 1.71 2.27 0.78 0.94 0.55 0.60 0.74 1.50 1.56 1.38 1.54 1.34 1.38 1.89 1.58 0.95 0.75 1.30 0.93 0.87 0.50 0.25 0.15 0.13 0.03 0.06 0.02 0.03 0.08 0.02 0.01 0.01 0.00 0.01 0.00 0.00 0.00 0.14
6.54 7.87 6.12 5.05 4.42 4.48 7.66 14.69 12.92 10.03 9.32 6.99 5.62 3.76 2.49 1.21 1.08 1.05 0.66 0.58 0.66 0.84 0.56 1.81 0.77 1.20 1.01 0.86 0.97 0.82 1.48 1.39 1.11 1.01 1.01 0.85 0.97 0.72 0.91 0.65 0.46 0.71 0.61 0.86 0.94 1.32 1.30 2.06 1.85 1.82 1.27 1.49 0.61 0.54 0.53 0.60 0.99 0.88 1.04 0.98 1.02 1.52 1.93 2.10 2.08 1.00 0.97 0.97 0.66 0.95 1.35 0.51 0.28 0.26 0.03 0.03 0.01 0.03 0.00 0.01 0.09 0.01 0.01 0.01 0.01 0.01 0.03 0.06
7.42 5.83 6.51 5.65 5.28 5.08 7.73 9.06 9.19 9.96 8.38 6.42 4.32 2.72 2.05 1.23 1.10 1.19 0.81 0.92 1.12 0.89 1.00 0.94 1.22 1.00 0.93 1.00 1.11 0.95 1.12 1.41 1.24 0.98 0.71 0.53 0.43 0.52 0.24 0.40 0.81 0.41 0.79 0.94 0.70 1.18 2.48 2.97 2.66 1.64 1.52 1.41 0.92 0.94 2.73 2.22 1.28 0.85 0.66 0.59 0.92 1.13 1.18 1.27 1.16 1.22 1.57 1.23 2.00 1.44 2.31 0.76 0.52 0.20 0.02 0.02 0.00 0.04 0.02 0.00 0.51 0.53 0.02 0.00 0.00 0.00 0.00 0.00
6.15 5.83 7.10 8.36 6.48 6.97 6.33 9.12 9.47 7.97 6.73 5.46 3.24 2.54 1.75 1.49 1.37 1.27 0.89 0.71 0.88 0.90 0.71 0.86 0.77 0.65 1.02 0.71 1.29 1.06 1.07 1.91 1.27 1.08 0.90 0.60 0.41 0.20 0.17 0.26 0.40 0.94 0.70 0.97 1.07 3.28 2.59 2.48 2.27 2.30 2.18 1.95 1.46 2.24 1.84 2.11 2.15 2.03 1.51 0.94 0.70 0.72 1.04 1.15 2.18 2.93 2.39 0.98 0.76 1.44 1.44 0.62 0.21 0.18 0.23 0.09 0.05 0.11 0.03 0.06 0.01 0.34 0.10 0.00 0.00 0.00 0.00 0.00
5.69 5.86 6.35 11.32 9.52 9.40 8.03 5.45 5.88 5.79 5.11 3.97 3.12 2.64 1.81 1.53 1.18 1.10 0.87 0.66 0.66 1.13 1.00 0.90 0.65 0.56 0.74 0.89 1.48 0.90 2.01 1.10 1.28 0.95 0.97 0.80 0.53 0.30 0.65 0.29 0.61 0.63 0.87 1.02 0.99 1.84 1.81 1.74 2.23 2.68 2.88 2.74 2.69 2.70 2.43 2.17 1.64 1.50 1.27 0.80 1.13 1.10 1.03 1.50 1.85 1.51 2.22 1.52 0.85 1.03 0.81 0.32 0.09 0.05 0.02 0.01 0.08 0.02 0.04 0.07 0.20 0.05 0.36 0.04 0.01 0.01 0.00 0.00
6.64 7.10 8.28 10.22 14.69 11.64 6.68 4.70 4.26 3.79 3.71 3.33 3.45 2.44 2.01 1.65 1.16 1.27 1.21 1.48 0.76 0.91 0.79 1.25 1.10 1.10 1.19 1.15 1.51 1.91 1.20 1.65 1.50 1.77 1.04 0.85 0.65 0.44 0.62 0.32 0.67 0.44 0.45 0.62 2.47 1.64 1.58 1.64 1.66 1.98 1.94 1.65 1.24 0.95 0.94 0.76 1.01 1.26 0.96 0.94 0.81 0.91 0.94 1.13 1.50 2.21 2.04 1.57 1.41 0.89 0.79 0.51 0.29 0.10 0.07 0.19 0.28 0.12 0.23 0.23 0.12 0.16 0.12 0.08 0.04 0.03 0.02 0.01
6.62 6.72 6.98 9.55 10.81 11.28 7.48 4.69 3.99 3.98 3.22 2.75 2.86 2.36 1.86 1.56 1.20 1.00 0.75 2.09 0.74 0.80 0.96 0.96 1.09 1.16 1.21 1.25 1.49 1.56 1.60 1.40 1.09 1.46 1.37 0.83 0.67 0.90 0.96 0.68 0.59 0.47 0.40 1.18 1.51 1.68 2.61 1.98 1.57 1.48 1.32 1.17 0.92 1.16 0.59 0.55 0.80 0.89 0.77 0.59 0.58 0.57 0.93 1.26 1.67 1.55 1.35 1.38 1.40 0.87 0.76 0.76 0.32 0.20 0.25 0.08 0.19 0.13 0.10 0.02 0.01 0.00 0.00 0.00 0.01 0.02 0.01 0.00
7.37 5.92 4.89 6.46 7.25 8.83 7.81 6.28 4.10 3.89 3.83 3.36 2.83 2.53 1.77 1.50 1.56 1.69 1.52 1.23 1.62 1.11 1.88 2.28 1.90 1.42 1.26 1.35 1.51 1.85 1.69 1.90 1.75 1.40 1.21 1.19 1.14 1.05 1.27 1.00 1.11 0.59 1.84 2.47 1.36 1.68 2.47 2.25 1.80 1.24 1.15 0.93 0.81 0.59 0.39 0.45 0.60 0.52 0.48 0.57 0.55 0.52 0.66 1.13 1.13 1.01 1.17 1.69 1.54 0.96 0.53 0.53 0.37 0.32 0.31 0.18 0.03 0.02 0.04 0.02 0.01 0.01 0.00 0.01 0.01 0.01 0.00 0.00
5.63 5.16 4.15 4.91 4.13 4.49 4.84 4.39 2.99 2.79 3.10 3.05 3.39 2.83 2.17 1.60 1.28 1.07 1.25 1.26 1.10 1.80 0.96 1.74 1.39 0.99 0.89 1.12 1.39 1.40 1.33 1.92 1.79 1.53 1.18 1.02 0.99 1.09 1.16 1.24 1.05 1.09 1.32 1.54 1.75 2.85 2.68 2.16 1.70 1.21 1.23 1.12 0.79 0.57 0.41 0.49 0.44 0.60 0.60 0.43 0.41 0.44 0.53 0.72 0.85 0.88 0.94 1.23 1.13 0.96 0.62 0.34 0.40 0.30 0.31 0.33 0.14 0.21 0.22 0.04 0.02 0.01 0.00 0.00 0.00 0.00 0.00 0.00
5.27 4.57 4.01 3.47 3.92 3.81 3.20 2.71 2.44 3.15 3.55 2.65 4.24 3.17 2.65 2.00 1.58 1.08 1.33 1.41 1.83 1.33 1.51 1.42 1.21 0.97 0.99 1.16 1.49 1.64 1.43 1.25 1.38 1.43 1.29 1.10 1.36 0.97 0.97 0.99 1.18 1.38 1.54 1.86 2.51 2.37 2.27 2.28 1.40 1.07 1.31 1.28 0.94 0.68 0.50 0.44 0.61 0.54 0.54 0.62 0.56 0.38 0.60 0.80 0.78 0.65 0.65 0.80 0.87 0.97 0.91 0.40 0.19 0.22 0.09 0.08 0.05 0.03 0.01 0.01 0.01 0.00 0.00 0.00 0.00 0.00 0.00 0.00
4.19 3.76 4.51 4.27 4.31 3.52 3.34 3.28 3.02 3.06 3.54 3.60 3.74 2.80 2.35 1.95 1.62 1.32 1.22 1.32 1.34 1.50 1.37 1.27 1.31 1.27 1.57 1.73 1.82 1.29 1.33 1.17 1.17 1.22 1.25 1.80 1.68 2.12 1.88 1.57 1.23 1.43 1.55 2.03 2.22 2.61 3.19 2.44 1.81 1.78 2.28 1.75 1.06 0.85 0.55 0.65 0.72 0.68 0.60 0.63 0.93 0.83 0.75 0.63 0.76 0.72 0.71 0.52 0.67 0.55 0.68 0.32 0.27 0.17 0.08 0.04 0.01 0.01 0.01 0.01 0.01 0.00 0.00 0.00 0.00 0.00 0.00 0.00
3.76 3.23 3.78 4.71 4.80 4.15 3.23 2.86 2.82 4.16 4.24 3.23 2.97 2.67 2.19 1.75 1.41 1.62 1.97 1.98 1.42 1.44 1.32 1.28 1.41 1.67 1.84 1.97 1.83 1.47 1.28 1.41 1.44 1.64 1.81 2.27 1.51 1.69 1.65 1.49 1.49 1.58 2.34 2.00 3.16 3.89 3.12 2.97 2.45 2.21 2.74 2.15 1.11 0.62 0.57 0.67 1.11 1.23 1.04 0.54 0.39 0.39 0.38 0.46 0.71 0.58 0.39 0.71 0.41 0.51 0.48 0.48 0.34 0.20 0.33 0.08 0.08 0.08 0.07 0.04 0.02 0.03 0.02 0.01 0.01 0.00 0.00 0.00